When you browse on this site, cookies collect data to enhance your experience and personalize the content and advertising you see.
Visit our Privacy Policy to learn more. By continuing to use the site, you agree to this use of cookies and data.
EN

Hourly Weather Gola

Today, 24 September, Thursday

Time Temperature Precipitation Wind Pressure Humidity
00:00 +18°C° 0 mm 4 mps 739 mmHg 72%
01:00 +17°C° 0 mm 3 mps 739 mmHg 73%
02:00 +17°C° 0 mm 3 mps 739 mmHg 76%
03:00 +16°C° 0 mm 3 mps 739 mmHg 78%
04:00 +16°C° 0 mm 3 mps 739 mmHg 80%
05:00 +16°C° 0 mm 3 mps 739 mmHg 81%
06:00 +17°C° 0 mm 3 mps 739 mmHg 82%
07:00 +17°C° 0 mm 3 mps 739 mmHg 83%
08:00 +19°C° 0 mm 3 mps 739 mmHg 77%
09:00 +20°C° 0 mm 3 mps 740 mmHg 70%
10:00 +22°C° 0 mm 3 mps 740 mmHg 64%
11:00 +24°C° 0 mm 3 mps 740 mmHg 59%
12:00 +25°C° 0 mm 4 mps 740 mmHg 54%
13:00 +26°C° 0 mm 4 mps 740 mmHg 49%
14:00 +26°C° 0 mm 3 mps 740 mmHg 49%
15:00 +26°C° 0 mm 3 mps 740 mmHg 50%
16:00 +25°C° 0 mm 3 mps 740 mmHg 51%
17:00 +24°C° 0 mm 3 mps 740 mmHg 56%
18:00 +21°C° 0 mm 2 mps 739 mmHg 60%
19:00 +20°C° 0 mm 2 mps 739 mmHg 65%
20:00 +19°C° 0 mm 2 mps 739 mmHg 68%
21:00 +19°C° 0 mm 2 mps 739 mmHg 70%
22:00 +18°C° 0 mm 2 mps 739 mmHg 72%
23:00 +18°C° 0 mm 2 mps 739 mmHg 74%

Tomorrow, 25 September, Friday

Time Temperature Precipitation Wind Pressure Humidity
00:00 +18°C° 0 mm 2 mps 738 mmHg 76%
01:00 +17°C° 0 mm 3 mps 738 mmHg 78%
02:00 +17°C° 0 mm 3 mps 737 mmHg 79%
03:00 +17°C° 0 mm 4 mps 736 mmHg 79%
04:00 +17°C° 0 mm 4 mps 736 mmHg 80%
05:00 +17°C° 0 mm 5 mps 735 mmHg 76%
06:00 +17°C° 0 mm 5 mps 734 mmHg 73%
07:00 +19°C° 0 mm 6 mps 733 mmHg 69%
08:00 +19°C° 0 mm 6 mps 733 mmHg 67%
09:00 +20°C° 0 mm 7 mps 733 mmHg 65%
10:00 +21°C° 0 mm 8 mps 733 mmHg 62%
11:00 +21°C° 0.1 mm 7 mps 732 mmHg 65%
12:00 +20°C° 0.1 mm 7 mps 732 mmHg 67%
13:00 +20°C° 0.1 mm 7 mps 732 mmHg 69%
14:00 +19°C° 1.7 mm 6 mps 732 mmHg 76%
15:00 +16°C° 1.7 mm 5 mps 732 mmHg 82%
16:00 +15°C° 1.7 mm 5 mps 732 mmHg 89%
17:00 +14°C° 0.1 mm 4 mps 732 mmHg 89%
18:00 +14°C° 0.1 mm 3 mps 732 mmHg 90%
19:00 +15°C° 0.1 mm 2 mps 733 mmHg 91%
20:00 +14°C° 0 mm 2 mps 733 mmHg 92%
21:00 +14°C° 0 mm 2 mps 733 mmHg 93%
22:00 +14°C° 0 mm 2 mps 733 mmHg 94%
23:00 +14°C° 0 mm 2 mps 732 mmHg 94%

Day after tomorrow, 26 September, Saturday

Time Temperature Precipitation Wind Pressure Humidity
00:00 +13°C° 0 mm 3 mps 732 mmHg 94%
01:00 +13°C° 0 mm 3 mps 732 mmHg 95%
02:00 +13°C° 0.4 mm 4 mps 731 mmHg 93%
03:00 +13°C° 0.4 mm 5 mps 731 mmHg 92%
04:00 +13°C° 0.4 mm 5 mps 730 mmHg 90%
05:00 +13°C° 0.1 mm 5 mps 730 mmHg 91%
06:00 +13°C° 0.1 mm 5 mps 729 mmHg 91%
07:00 +13°C° 0.1 mm 5 mps 729 mmHg 92%
08:00 +14°C° 0.4 mm 5 mps 729 mmHg 91%
09:00 +15°C° 0.4 mm 4 mps 729 mmHg 89%
10:00 +17°C° 0.4 mm 3 mps 729 mmHg 88%
11:00 +17°C° 0.9 mm 3 mps 729 mmHg 89%
12:00 +17°C° 0.9 mm 4 mps 729 mmHg 91%
13:00 +17°C° 0.9 mm 4 mps 729 mmHg 92%
14:00 +15°C° 0.4 mm 4 mps 730 mmHg 90%
15:00 +16°C° 0.4 mm 3 mps 730 mmHg 88%
16:00 +14°C° 0.4 mm 3 mps 731 mmHg 86%
17:00 +14°C° 0 mm 3 mps 731 mmHg 87%
18:00 +13°C° 0 mm 3 mps 732 mmHg 89%
19:00 +13°C° 0 mm 2 mps 732 mmHg 90%
20:00 +12°C° 0 mm 3 mps 733 mmHg 90%
21:00 +11°C° 0 mm 4 mps 733 mmHg 90%
22:00 +10°C° 0 mm 4 mps 733 mmHg 91%
23:00 +9°C° 1.5 mm 5 mps 733 mmHg 91%

27 September, Sunday

Time Temperature Precipitation Wind Pressure Humidity
00:00 +9°C° 1.5 mm 5 mps 733 mmHg 92%
01:00 +9°C° 1.5 mm 6 mps 732 mmHg 93%
02:00 +8°C° 3.5 mm 6 mps 732 mmHg 93%
03:00 +8°C° 3.5 mm 7 mps 732 mmHg 94%
04:00 +8°C° 3.5 mm 7 mps 731 mmHg 94%
05:00 +7°C° 4.1 mm 8 mps 731 mmHg 94%
06:00 +7°C° 4.1 mm 8 mps 730 mmHg 94%
07:00 +7°C° 4.1 mm 8 mps 730 mmHg 94%
08:00 +9°C° 2.5 mm 8 mps 730 mmHg 94%
09:00 +9°C° 2.5 mm 8 mps 730 mmHg 94%
10:00 +9°C° 2.5 mm 8 mps 730 mmHg 94%
11:00 +9°C° 1.8 mm 7 mps 730 mmHg 94%
12:00 +9°C° 1.8 mm 7 mps 730 mmHg 94%
13:00 +10°C° 1.8 mm 6 mps 730 mmHg 94%
14:00 +10°C° 1.3 mm 6 mps 730 mmHg 94%
15:00 +11°C° 1.3 mm 6 mps 730 mmHg 94%
16:00 +11°C° 1.3 mm 6 mps 730 mmHg 93%
17:00 +11°C° 1.1 mm 6 mps 730 mmHg 94%
18:00 +10°C° 1.1 mm 5 mps 731 mmHg 94%
19:00 +10°C° 1.1 mm 5 mps 731 mmHg 94%
20:00 +10°C° 0.1 mm 5 mps 731 mmHg 94%
21:00 +10°C° 0.1 mm 5 mps 732 mmHg 95%
22:00 +10°C° 0.1 mm 5 mps 732 mmHg 95%
23:00 +9°C° 0.5 mm 5 mps 732 mmHg 95%

28 September, Monday

Time Temperature Precipitation Wind Pressure Humidity
00:00 +9°C° 0.5 mm 5 mps 732 mmHg 94%
01:00 +9°C° 0.5 mm 5 mps 732 mmHg 94%
02:00 +9°C° 0.5 mm 6 mps 732 mmHg 93%
03:00 +8°C° 0.5 mm 6 mps 733 mmHg 92%
04:00 +8°C° 0.5 mm 7 mps 733 mmHg 91%
05:00 +8°C° 0.3 mm 7 mps 733 mmHg 91%
06:00 +8°C° 0.3 mm 7 mps 733 mmHg 91%
07:00 +8°C° 0.3 mm 6 mps 734 mmHg 90%
08:00 +8°C° 0.4 mm 7 mps 734 mmHg 90%
09:00 +7°C° 0.4 mm 8 mps 734 mmHg 89%
10:00 +7°C° 0.4 mm 8 mps 735 mmHg 88%
11:00 +7°C° 0.3 mm 8 mps 735 mmHg 87%
12:00 +7°C° 0.3 mm 8 mps 735 mmHg 86%
13:00 +7°C° 0.3 mm 8 mps 736 mmHg 85%
14:00 +7°C° 0.3 mm 8 mps 736 mmHg 86%
15:00 +7°C° 0.3 mm 8 mps 736 mmHg 86%
16:00 +8°C° 0.3 mm 7 mps 736 mmHg 87%
17:00 +8°C° 0.3 mm 7 mps 737 mmHg 87%
18:00 +8°C° 0.3 mm 7 mps 737 mmHg 88%
19:00 +8°C° 0.3 mm 6 mps 737 mmHg 88%
20:00 +8°C° 0.1 mm 6 mps 738 mmHg 88%
21:00 +8°C° 0.1 mm 6 mps 738 mmHg 87%
22:00 +8°C° 0.1 mm 6 mps 738 mmHg 87%
23:00 +8°C° 0.2 mm 5 mps 738 mmHg 88%

29 September, Tuesday

Time Temperature Precipitation Wind Pressure Humidity
00:00 +8°C° 0.2 mm 5 mps 738 mmHg 88%
01:00 +8°C° 0.2 mm 5 mps 738 mmHg 89%
02:00 +8°C° 0.2 mm 5 mps 738 mmHg 90%
03:00 +8°C° 0.2 mm 5 mps 738 mmHg 91%
04:00 +8°C° 0.2 mm 4 mps 738 mmHg 92%
05:00 +8°C° 0 mm 4 mps 739 mmHg 92%
06:00 +8°C° 0 mm 4 mps 739 mmHg 92%
07:00 +9°C° 0 mm 3 mps 739 mmHg 91%
08:00 +9°C° 0.3 mm 3 mps 739 mmHg 89%
09:00 +10°C° 0.3 mm 3 mps 739 mmHg 86%
10:00 +11°C° 0.3 mm 3 mps 739 mmHg 83%
11:00 +11°C° 0.2 mm 3 mps 740 mmHg 82%
12:00 +12°C° 0.2 mm 3 mps 740 mmHg 80%
13:00 +12°C° 0.2 mm 3 mps 740 mmHg 78%
14:00 +13°C° 0.1 mm 3 mps 740 mmHg 79%
15:00 +13°C° 0.1 mm 3 mps 740 mmHg 80%
16:00 +13°C° 0.1 mm 3 mps 740 mmHg 80%
17:00 +12°C° 0 mm 3 mps 741 mmHg 83%
18:00 +11°C° 0 mm 3 mps 741 mmHg 86%
19:00 +11°C° 0 mm 3 mps 742 mmHg 89%
20:00 +10°C° 0 mm 3 mps 742 mmHg 89%
21:00 +10°C° 0 mm 3 mps 742 mmHg 89%
22:00 +9°C° 0 mm 3 mps 742 mmHg 90%
23:00 +9°C° 0 mm 3 mps 742 mmHg 90%
Show more